Погода в Чонтауле

Россия / Республика Дагестан     43°18′13″N   46°51′34″E
темп.,
°C
ветер,
м/с
пор.,
м/с
влажн.,
%
обл.,
%
осадки,
мм/ч
давл.,
гПа
погр.,
м
17 мая, вт
вт1700:00+13з467354 0.0 101795
03:00+14зюз5980100 0.1 1017302
06:00+14зюз3782100 0.1 1017219
09:00+15з3577100 0.2 1017269
12:00+17з4563100 0.0 1017639
15:00+16зюз2472100 0.0 1016160
18:00+16ю226866 0.0 101531
21:00+14зюз226714 0.0 101611
18 мая, ср
ср1800:00+13з236860 0.0 101623
03:00+14з346693 0.0 101676
06:00+15ююз11688 0.0 101657
09:00+20в45535 0.0 10151291
12:00+22в884667 0.0 10121657
15:00+22в895029 0.0 10101082
18:00+19в69665 0.0 1009342
21:00+14вюв368455 0.0 101095
19 мая, чт
чт1900:00+13вюв01860 0.0 101011
03:00+12з22860 0.0 101013
06:00+15сз12750 0.0 101177
09:00+20зсз79600 0.0 1013813
12:00+22зсз9105588 0.0 10141562
15:00+16з101268100 0.0 1016922
18:00+12з91276100 0.1 1019965
21:00+12з91372100 0.1 1021850
20 мая, пт
пт2000:00+10зюз101583100 0.8 10221001
03:00+11зюз121771100 0.9 10211196
06:00+12з111666100 0.0 10221277
09:00+13з101464100 0.1 10231408
12:00+14з91363100 0.6 10231564
15:00+17з10135282 1.3 10221866
18:00+16з81255100 0.1 1022822
21:00+14з71463100 0.4 1023614
21 мая, сб
сб2100:00+15з91358100 0.1 10231155
03:00+13з511636 0.1 1023408
06:00+14з49676 0.0 1023441
09:00+19сз45495 0.0 10211295
12:00+21с224322 0.0 10201799
15:00+23ссв32410 0.0 10171846
18:00+19в45582 0.0 1016193
21:00+14ююв2267100 0.0 101613